GEFSNGP_prec_meanprecacc_114.txt.gz
Total_Precipitation_Accumulation
0.06 0.08 0.11 0.15 0.12 0.10 0.10 0.16 0.26 0.22 0.20 0.22 0.22 0.21 0.24 0.25 0.22 0.18 0.16 0.14 0.15 0.18 0.21 0.26 0.25 0.22 0.20 0.17 0.17 0.23 0.28 0.35 0.44 0.39 0.34 0.31 0.28 0.22 0.20 0.24 0.29 0.43 0.51 0.57
0.03 0.06 0.09 0.11 0.13 0.09 0.07 0.07 0.10 0.14 0.20 0.20 0.20 0.20 0.21 0.19 0.17 0.16 0.16 0.13 0.12 0.14 0.17 0.19 0.16 0.11 0.08 0.08 0.11 0.18 0.24 0.29 0.36 0.36 0.29 0.23 0.19 0.14 0.14 0.20 0.28 0.36 0.39 0.45
0.05 0.06 0.08 0.14 0.13 0.09 0.06 0.05 0.06 0.14 0.23 0.21 0.21 0.21 0.18 0.17 0.15 0.12 0.10 0.08 0.07 0.06 0.06 0.05 0.05 0.04 0.05 0.06 0.07 0.15 0.25 0.32 0.37 0.42 0.42 0.31 0.18 0.16 0.19 0.25 0.33 0.38 0.37 0.37
0.06 0.09 0.19 0.16 0.09 0.07 0.07 0.05 0.06 0.09 0.10 0.11 0.10 0.08 0.07 0.07 0.06 0.04 0.04 0.04 0.03 0.03 0.02 0.03 0.03 0.05 0.08 0.07 0.08 0.14 0.24 0.31 0.34 0.39 0.40 0.36 0.31 0.30 0.33 0.39 0.46 0.47 0.41 0.40
0.07 0.09 0.14 0.11 0.11 0.11 0.11 0.09 0.08 0.08 0.06 0.06 0.07 0.06 0.07 0.05 0.04 0.04 0.04 0.05 0.04 0.03 0.03 0.04 0.05 0.08 0.13 0.13 0.16 0.21 0.30 0.39 0.40 0.42 0.42 0.37 0.35 0.39 0.44 0.50 0.50 0.51 0.46 0.44
0.14 0.15 0.17 0.15 0.16 0.16 0.14 0.19 0.11 0.10 0.07 0.05 0.04 0.09 0.12 0.06 0.03 0.03 0.05 0.08 0.08 0.05 0.05 0.07 0.09 0.12 0.17 0.23 0.28 0.35 0.45 0.51 0.49 0.54 0.56 0.52 0.53 0.55 0.54 0.58 0.53 0.49 0.47 0.51
0.18 0.23 0.23 0.20 0.19 0.17 0.24 0.29 0.13 0.11 0.08 0.06 0.06 0.08 0.07 0.05 0.03 0.02 0.03 0.03 0.04 0.06 0.06 0.08 0.11 0.15 0.24 0.30 0.34 0.38 0.41 0.49 0.55 0.62 0.69 0.73 0.78 0.75 0.71 0.67 0.64 0.59 0.55 0.56
0.31 0.37 0.32 0.19 0.14 0.20 0.26 0.21 0.16 0.13 0.10 0.07 0.07 0.07 0.05 0.03 0.03 0.03 0.03 0.04 0.05 0.07 0.06 0.09 0.12 0.19 0.26 0.31 0.33 0.37 0.42 0.51 0.58 0.64 0.64 0.73 0.98 0.98 1.00 0.95 0.83 0.75 0.72 0.65
0.31 0.30 0.20 0.17 0.19 0.19 0.21 0.22 0.17 0.15 0.11 0.08 0.07 0.06 0.05 0.05 0.05 0.04 0.04 0.05 0.06 0.10 0.12 0.15 0.19 0.30 0.42 0.40 0.40 0.45 0.51 0.58 0.62 0.63 0.71 0.85 0.99 1.04 1.08 1.05 0.93 0.84 0.82 0.79
0.28 0.29 0.28 0.21 0.19 0.20 0.18 0.15 0.14 0.12 0.10 0.09 0.09 0.09 0.08 0.08 0.07 0.08 0.08 0.08 0.11 0.16 0.23 0.31 0.36 0.43 0.54 0.51 0.52 0.57 0.59 0.62 0.65 0.70 0.73 0.82 0.98 1.00 0.99 0.96 0.94 0.91 0.90 0.86
0.30 0.26 0.24 0.21 0.25 0.23 0.15 0.13 0.12 0.09 0.09 0.10 0.10 0.10 0.09 0.08 0.09 0.10 0.10 0.11 0.16 0.25 0.34 0.42 0.50 0.56 0.60 0.63 0.69 0.74 0.70 0.67 0.71 0.76 0.81 0.88 0.93 0.99 0.94 0.89 0.80 0.82 0.84 0.83
0.30 0.27 0.36 0.34 0.23 0.16 0.13 0.10 0.09 0.09 0.09 0.09 0.10 0.10 0.09 0.09 0.10 0.11 0.12 0.13 0.18 0.26 0.36 0.45 0.53 0.61 0.66 0.76 0.89 0.96 0.94 0.84 0.84 0.86 0.90 0.96 0.96 0.86 0.72 0.64 0.51 0.49 0.54 0.59
0.24 0.23 0.26 0.21 0.16 0.15 0.13 0.11 0.09 0.08 0.09 0.09 0.08 0.09 0.09 0.10 0.11 0.12 0.14 0.16 0.21 0.28 0.35 0.41 0.47 0.58 0.68 0.82 0.90 0.95 0.98 0.97 0.92 0.94 0.98 0.99 1.00 0.96 0.87 0.72 0.57 0.48 0.44 0.47
0.19 0.20 0.18 0.15 0.14 0.13 0.11 0.11 0.09 0.08 0.08 0.08 0.08 0.10 0.10 0.11 0.12 0.14 0.16 0.18 0.21 0.28 0.36 0.42 0.49 0.56 0.66 0.79 0.89 0.92 0.92 0.91 0.91 0.96 0.98 0.95 0.94 0.96 1.00 0.94 0.83 0.71 0.54 0.50
0.19 0.20 0.22 0.21 0.17 0.16 0.16 0.14 0.14 0.13 0.11 0.09 0.09 0.09 0.11 0.13 0.14 0.15 0.16 0.19 0.24 0.29 0.35 0.44 0.56 0.62 0.71 0.80 0.85 0.90 0.93 0.92 0.94 0.92 0.93 0.94 0.92 0.90 0.94 0.98 0.96 0.86 0.71 0.63
0.27 0.26 0.23 0.17 0.15 0.14 0.14 0.14 0.14 0.14 0.14 0.13 0.12 0.11 0.12 0.13 0.14 0.15 0.18 0.24 0.33 0.40 0.47 0.57 0.61 0.67 0.82 0.92 0.96 0.98 1.00 0.99 1.02 0.99 0.88 0.86 0.89 0.92 0.93 0.98 0.99 0.90 0.77 0.66
0.35 0.33 0.26 0.20 0.18 0.17 0.17 0.17 0.17 0.16 0.15 0.14 0.14 0.13 0.14 0.15 0.16 0.17 0.19 0.24 0.32 0.38 0.50 0.63 0.64 0.66 0.81 0.96 1.05 1.06 0.99 0.92 0.93 0.95 0.87 0.77 0.80 0.85 0.87 0.89 0.86 0.78 0.69 0.56
0.34 0.31 0.27 0.26 0.25 0.23 0.22 0.22 0.22 0.21 0.21 0.19 0.18 0.18 0.20 0.23 0.26 0.26 0.28 0.31 0.35 0.38 0.41 0.49 0.58 0.66 0.76 0.89 0.99 1.03 1.02 0.97 0.91 0.89 0.86 0.78 0.74 0.77 0.81 0.79 0.70 0.64 0.59 0.50
0.25 0.23 0.22 0.23 0.25 0.26 0.27 0.29 0.29 0.29 0.29 0.28 0.29 0.29 0.29 0.30 0.33 0.35 0.37 0.42 0.54 0.60 0.54 0.52 0.61 0.63 0.72 0.84 0.96 0.95 0.98 1.01 0.94 0.80 0.77 0.77 0.71 0.72 0.67 0.63 0.58 0.56 0.52 0.47
0.23 0.25 0.27 0.30 0.34 0.38 0.40 0.40 0.41 0.41 0.39 0.39 0.38 0.39 0.39 0.38 0.41 0.45 0.48 0.53 0.62 0.72 0.69 0.65 0.60 0.56 0.64 0.81 0.92 0.87 0.83 0.89 0.86 0.74 0.73 0.77 0.71 0.64 0.53 0.51 0.50 0.50 0.50 0.47
0.27 0.31 0.35 0.37 0.40 0.42 0.44 0.47 0.48 0.46 0.43 0.42 0.43 0.44 0.44 0.42 0.42 0.51 0.66 0.69 0.63 0.68 0.69 0.67 0.60 0.57 0.60 0.77 0.83 0.82 0.77 0.75 0.76 0.71 0.67 0.67 0.65 0.59 0.50 0.50 0.49 0.47 0.43 0.42
0.27 0.30 0.34 0.35 0.35 0.33 0.31 0.33 0.33 0.34 0.32 0.32 0.35 0.38 0.44 0.46 0.45 0.50 0.59 0.69 0.72 0.74 0.67 0.64 0.61 0.59 0.57 0.67 0.72 0.79 0.81 0.74 0.71 0.64 0.61 0.57 0.58 0.56 0.49 0.46 0.42 0.37 0.36 0.37
0.16 0.16 0.18 0.19 0.20 0.19 0.16 0.17 0.21 0.26 0.28 0.29 0.32 0.41 0.54 0.57 0.57 0.66 0.66 0.60 0.67 0.68 0.63 0.60 0.59 0.56 0.51 0.53 0.64 0.72 0.77 0.75 0.71 0.62 0.56 0.52 0.48 0.46 0.43 0.38 0.33 0.31 0.32 0.33
0.05 0.06 0.07 0.07 0.09 0.12 0.14 0.15 0.18 0.21 0.24 0.27 0.29 0.39 0.60 0.72 0.67 0.62 0.61 0.60 0.57 0.52 0.50 0.50 0.45 0.43 0.44 0.44 0.54 0.61 0.69 0.71 0.72 0.63 0.55 0.50 0.42 0.41 0.44 0.42 0.35 0.31 0.30 0.29
0.03 0.03 0.04 0.07 0.13 0.20 0.26 0.27 0.24 0.23 0.29 0.32 0.31 0.39 0.55 0.70 0.79 0.71 0.59 0.52 0.49 0.44 0.44 0.41 0.38 0.41 0.42 0.45 0.53 0.62 0.68 0.69 0.69 0.65 0.56 0.50 0.44 0.43 0.46 0.44 0.39 0.33 0.31 0.29
0.04 0.06 0.08 0.12 0.20 0.30 0.36 0.38 0.40 0.41 0.48 0.54 0.52 0.55 0.63 0.66 0.70 0.69 0.61 0.51 0.45 0.45 0.45 0.43 0.40 0.39 0.42 0.49 0.54 0.61 0.68 0.69 0.66 0.60 0.50 0.46 0.41 0.41 0.45 0.43 0.37 0.34 0.30 0.25
0.07 0.10 0.15 0.19 0.26 0.36 0.42 0.49 0.56 0.62 0.70 0.80 0.86 0.80 0.80 0.79 0.74 0.65 0.56 0.47 0.41 0.41 0.42 0.41 0.37 0.35 0.39 0.48 0.55 0.62 0.62 0.62 0.57 0.52 0.50 0.47 0.44 0.45 0.47 0.43 0.38 0.33 0.26 0.23

GEFSNGP_prec_meanprecacc_120.txt.gz
Total_Precipitation_Accumulation
0.07 0.08 0.11 0.15 0.12 0.10 0.10 0.16 0.26 0.22 0.20 0.22 0.22 0.21 0.24 0.25 0.22 0.18 0.16 0.15 0.15 0.18 0.21 0.26 0.25 0.22 0.20 0.17 0.18 0.23 0.28 0.35 0.44 0.39 0.34 0.31 0.28 0.22 0.20 0.24 0.29 0.43 0.51 0.57
0.04 0.06 0.09 0.11 0.13 0.10 0.07 0.07 0.10 0.14 0.20 0.20 0.20 0.20 0.21 0.19 0.17 0.16 0.16 0.13 0.13 0.14 0.17 0.19 0.16 0.11 0.08 0.08 0.11 0.18 0.25 0.29 0.36 0.36 0.29 0.23 0.20 0.15 0.15 0.20 0.28 0.36 0.40 0.45
0.07 0.07 0.09 0.15 0.13 0.09 0.06 0.05 0.06 0.14 0.23 0.21 0.21 0.21 0.19 0.17 0.15 0.12 0.10 0.08 0.07 0.06 0.06 0.05 0.05 0.04 0.05 0.06 0.07 0.15 0.25 0.32 0.37 0.42 0.42 0.31 0.18 0.16 0.19 0.25 0.33 0.38 0.38 0.38
0.09 0.12 0.22 0.17 0.09 0.07 0.07 0.05 0.06 0.09 0.10 0.11 0.10 0.08 0.07 0.07 0.06 0.04 0.04 0.04 0.03 0.03 0.02 0.03 0.03 0.05 0.08 0.07 0.09 0.14 0.24 0.31 0.34 0.39 0.40 0.36 0.31 0.30 0.33 0.40 0.46 0.49 0.42 0.40
0.10 0.12 0.15 0.11 0.11 0.11 0.12 0.09 0.08 0.08 0.06 0.06 0.07 0.06 0.07 0.05 0.04 0.04 0.04 0.05 0.04 0.03 0.04 0.04 0.05 0.08 0.13 0.14 0.16 0.21 0.30 0.40 0.40 0.42 0.43 0.37 0.36 0.40 0.45 0.50 0.51 0.52 0.46 0.44
0.18 0.20 0.19 0.15 0.16 0.17 0.15 0.20 0.12 0.10 0.08 0.05 0.05 0.10 0.13 0.07 0.03 0.03 0.05 0.09 0.08 0.06 0.06 0.07 0.09 0.13 0.18 0.23 0.28 0.36 0.45 0.51 0.50 0.54 0.57 0.53 0.54 0.55 0.55 0.59 0.53 0.49 0.47 0.51
0.23 0.28 0.25 0.20 0.20 0.18 0.27 0.32 0.14 0.11 0.09 0.06 0.06 0.09 0.08 0.06 0.03 0.03 0.04 0.04 0.05 0.07 0.07 0.09 0.11 0.15 0.25 0.30 0.34 0.39 0.42 0.50 0.56 0.63 0.71 0.74 0.79 0.75 0.72 0.67 0.65 0.60 0.55 0.56
0.38 0.43 0.35 0.20 0.16 0.22 0.29 0.23 0.18 0.14 0.10 0.08 0.08 0.08 0.06 0.04 0.04 0.03 0.03 0.04 0.05 0.08 0.07 0.09 0.13 0.20 0.28 0.32 0.34 0.38 0.43 0.52 0.59 0.65 0.65 0.74 0.99 0.99 1.00 0.95 0.83 0.76 0.72 0.65
0.35 0.34 0.23 0.20 0.21 0.21 0.23 0.24 0.19 0.16 0.11 0.08 0.07 0.07 0.06 0.06 0.06 0.05 0.05 0.05 0.07 0.11 0.13 0.16 0.20 0.31 0.43 0.41 0.41 0.46 0.52 0.59 0.63 0.64 0.71 0.85 0.99 1.04 1.08 1.05 0.93 0.84 0.82 0.79
0.32 0.31 0.30 0.23 0.20 0.22 0.19 0.17 0.15 0.13 0.12 0.10 0.10 0.11 0.10 0.09 0.09 0.09 0.09 0.09 0.12 0.17 0.24 0.32 0.36 0.44 0.54 0.52 0.53 0.58 0.60 0.63 0.66 0.71 0.74 0.83 0.99 1.00 1.00 0.96 0.94 0.91 0.90 0.86
0.35 0.29 0.28 0.24 0.27 0.25 0.17 0.14 0.13 0.11 0.11 0.12 0.12 0.12 0.11 0.11 0.11 0.11 0.11 0.12 0.17 0.26 0.35 0.43 0.51 0.57 0.61 0.64 0.70 0.74 0.71 0.68 0.72 0.77 0.82 0.88 0.94 0.99 0.94 0.89 0.80 0.82 0.85 0.83
0.35 0.31 0.40 0.37 0.25 0.18 0.15 0.12 0.11 0.11 0.11 0.10 0.11 0.11 0.10 0.10 0.12 0.12 0.13 0.14 0.19 0.27 0.37 0.45 0.54 0.62 0.67 0.77 0.90 0.97 0.95 0.85 0.84 0.87 0.91 0.97 0.97 0.87 0.73 0.65 0.52 0.50 0.54 0.59
0.28 0.25 0.28 0.23 0.18 0.18 0.15 0.14 0.13 0.11 0.11 0.10 0.09 0.09 0.10 0.11 0.12 0.13 0.15 0.17 0.22 0.29 0.36 0.42 0.49 0.60 0.70 0.83 0.91 0.96 0.99 0.98 0.93 0.95 0.99 0.99 1.01 0.96 0.88 0.72 0.57 0.49 0.44 0.48
0.21 0.22 0.20 0.17 0.18 0.17 0.14 0.14 0.12 0.11 0.10 0.10 0.10 0.11 0.12 0.13 0.13 0.15 0.17 0.20 0.23 0.29 0.37 0.44 0.51 0.58 0.69 0.81 0.91 0.94 0.93 0.92 0.92 0.96 0.99 0.95 0.94 0.96 1.01 0.94 0.84 0.72 0.55 0.51
0.23 0.24 0.26 0.24 0.21 0.19 0.18 0.17 0.16 0.15 0.13 0.11 0.10 0.11 0.13 0.15 0.16 0.17 0.17 0.20 0.25 0.31 0.36 0.46 0.58 0.64 0.72 0.81 0.87 0.91 0.93 0.93 0.94 0.93 0.93 0.95 0.93 0.91 0.94 0.99 0.97 0.87 0.72 0.64
0.31 0.31 0.30 0.24 0.20 0.16 0.16 0.17 0.18 0.18 0.17 0.16 0.15 0.13 0.13 0.14 0.16 0.17 0.20 0.25 0.34 0.41 0.49 0.59 0.63 0.69 0.84 0.93 0.97 0.99 1.02 1.01 1.04 1.00 0.89 0.87 0.90 0.94 0.94 0.99 1.00 0.91 0.79 0.67
0.41 0.40 0.35 0.27 0.22 0.21 0.21 0.21 0.23 0.23 0.21 0.19 0.18 0.16 0.15 0.16 0.17 0.18 0.20 0.24 0.33 0.39 0.50 0.64 0.65 0.68 0.82 0.97 1.07 1.08 1.01 0.94 0.95 0.96 0.87 0.78 0.81 0.87 0.89 0.90 0.87 0.80 0.70 0.57
0.41 0.39 0.34 0.32 0.30 0.29 0.28 0.27 0.26 0.24 0.23 0.22 0.20 0.20 0.22 0.25 0.27 0.27 0.28 0.31 0.36 0.38 0.41 0.49 0.58 0.67 0.77 0.89 0.99 1.04 1.03 0.97 0.91 0.89 0.87 0.79 0.74 0.78 0.81 0.80 0.71 0.65 0.60 0.50
0.30 0.27 0.26 0.26 0.28 0.30 0.31 0.32 0.32 0.31 0.30 0.29 0.29 0.30 0.30 0.31 0.33 0.36 0.37 0.43 0.54 0.60 0.54 0.52 0.61 0.63 0.72 0.84 0.96 0.96 0.98 1.02 0.95 0.80 0.78 0.78 0.72 0.73 0.67 0.64 0.59 0.56 0.52 0.48
0.27 0.27 0.29 0.32 0.36 0.40 0.43 0.42 0.42 0.42 0.40 0.39 0.39 0.39 0.39 0.39 0.41 0.45 0.48 0.53 0.62 0.72 0.70 0.65 0.60 0.56 0.65 0.81 0.92 0.87 0.84 0.89 0.86 0.74 0.73 0.77 0.71 0.65 0.53 0.51 0.50 0.50 0.50 0.48
0.31 0.34 0.37 0.39 0.41 0.43 0.45 0.47 0.48 0.47 0.44 0.42 0.43 0.44 0.44 0.42 0.42 0.51 0.66 0.69 0.63 0.68 0.69 0.67 0.60 0.57 0.60 0.77 0.83 0.83 0.78 0.76 0.77 0.71 0.67 0.67 0.65 0.59 0.50 0.51 0.50 0.48 0.44 0.43
0.30 0.32 0.36 0.37 0.36 0.34 0.32 0.33 0.34 0.35 0.34 0.33 0.36 0.38 0.45 0.46 0.45 0.50 0.59 0.69 0.72 0.74 0.67 0.64 0.61 0.59 0.57 0.67 0.73 0.80 0.82 0.74 0.71 0.64 0.61 0.57 0.58 0.56 0.49 0.46 0.43 0.37 0.37 0.39
0.18 0.18 0.19 0.20 0.22 0.21 0.18 0.19 0.23 0.28 0.29 0.30 0.33 0.42 0.54 0.57 0.57 0.66 0.66 0.60 0.67 0.68 0.63 0.60 0.59 0.57 0.52 0.54 0.64 0.72 0.78 0.75 0.71 0.62 0.56 0.52 0.49 0.46 0.43 0.39 0.34 0.32 0.33 0.35
0.07 0.07 0.07 0.08 0.10 0.14 0.15 0.17 0.19 0.22 0.25 0.28 0.29 0.39 0.60 0.72 0.67 0.62 0.61 0.60 0.57 0.52 0.50 0.51 0.45 0.43 0.44 0.44 0.54 0.62 0.69 0.71 0.72 0.63 0.55 0.50 0.43 0.41 0.44 0.43 0.36 0.32 0.31 0.30
0.04 0.04 0.05 0.08 0.14 0.21 0.26 0.27 0.24 0.24 0.30 0.32 0.31 0.39 0.55 0.70 0.79 0.71 0.59 0.52 0.49 0.44 0.44 0.42 0.38 0.41 0.42 0.45 0.53 0.62 0.69 0.69 0.69 0.65 0.56 0.50 0.44 0.43 0.46 0.45 0.39 0.34 0.32 0.30
0.05 0.07 0.09 0.14 0.21 0.31 0.37 0.38 0.40 0.41 0.49 0.54 0.52 0.55 0.63 0.66 0.70 0.69 0.61 0.51 0.45 0.45 0.45 0.44 0.40 0.39 0.42 0.50 0.54 0.61 0.68 0.69 0.66 0.60 0.50 0.46 0.42 0.41 0.45 0.43 0.38 0.35 0.31 0.26
0.10 0.13 0.18 0.21 0.27 0.36 0.42 0.49 0.57 0.62 0.70 0.80 0.86 0.80 0.80 0.79 0.74 0.65 0.56 0.47 0.42 0.41 0.42 0.41 0.38 0.36 0.40 0.48 0.55 0.62 0.62 0.62 0.57 0.52 0.51 0.48 0.45 0.46 0.47 0.43 0.39 0.35 0.28 0.25

GEFSNGP_prec_meanprecacc_126.txt.gz
Total_Precipitation_Accumulation
0.10 0.16 0.19 0.23 0.19 0.14 0.11 0.16 0.27 0.23 0.22 0.26 0.26 0.23 0.26 0.26 0.22 0.18 0.17 0.15 0.16 0.18 0.22 0.26 0.25 0.22 0.20 0.18 0.18 0.24 0.28 0.35 0.45 0.40 0.34 0.31 0.28 0.22 0.20 0.24 0.30 0.43 0.52 0.57
0.06 0.10 0.13 0.16 0.19 0.13 0.09 0.08 0.11 0.17 0.24 0.26 0.26 0.24 0.22 0.19 0.17 0.16 0.16 0.14 0.13 0.15 0.17 0.19 0.16 0.11 0.08 0.09 0.12 0.19 0.25 0.30 0.37 0.36 0.29 0.23 0.20 0.15 0.15 0.21 0.28 0.37 0.40 0.45
0.10 0.09 0.13 0.18 0.15 0.11 0.07 0.05 0.06 0.18 0.30 0.23 0.23 0.22 0.19 0.17 0.15 0.12 0.10 0.08 0.08 0.07 0.06 0.05 0.05 0.05 0.05 0.06 0.08 0.16 0.26 0.33 0.38 0.42 0.42 0.31 0.19 0.16 0.19 0.26 0.34 0.39 0.38 0.38
0.15 0.20 0.31 0.19 0.10 0.09 0.09 0.06 0.07 0.11 0.15 0.13 0.14 0.10 0.07 0.07 0.08 0.05 0.04 0.04 0.04 0.03 0.02 0.03 0.03 0.05 0.08 0.07 0.09 0.15 0.25 0.31 0.34 0.39 0.40 0.37 0.32 0.31 0.34 0.42 0.48 0.51 0.44 0.41
0.21 0.26 0.22 0.16 0.13 0.12 0.13 0.11 0.09 0.11 0.08 0.07 0.08 0.07 0.08 0.05 0.08 0.06 0.05 0.05 0.04 0.04 0.04 0.05 0.05 0.08 0.13 0.14 0.17 0.22 0.31 0.41 0.41 0.44 0.44 0.40 0.39 0.42 0.47 0.52 0.53 0.54 0.48 0.45
0.31 0.35 0.32 0.24 0.22 0.19 0.18 0.25 0.14 0.12 0.09 0.06 0.06 0.14 0.15 0.07 0.05 0.05 0.06 0.09 0.08 0.06 0.07 0.09 0.10 0.13 0.19 0.25 0.31 0.39 0.48 0.54 0.53 0.57 0.61 0.56 0.57 0.58 0.57 0.60 0.55 0.52 0.50 0.53
0.38 0.41 0.35 0.29 0.29 0.23 0.37 0.44 0.18 0.13 0.10 0.08 0.09 0.11 0.09 0.07 0.04 0.04 0.05 0.06 0.07 0.10 0.09 0.11 0.13 0.18 0.29 0.35 0.39 0.43 0.45 0.53 0.59 0.66 0.74 0.78 0.82 0.78 0.74 0.70 0.67 0.61 0.57 0.58
0.54 0.59 0.48 0.29 0.30 0.41 0.47 0.33 0.23 0.17 0.12 0.09 0.09 0.08 0.06 0.05 0.04 0.04 0.04 0.06 0.09 0.11 0.10 0.13 0.16 0.24 0.33 0.37 0.39 0.42 0.47 0.56 0.63 0.70 0.70 0.79 1.03 1.03 1.03 0.98 0.85 0.78 0.74 0.66
0.51 0.51 0.37 0.31 0.37 0.41 0.39 0.36 0.27 0.21 0.13 0.09 0.08 0.07 0.07 0.07 0.07 0.06 0.06 0.07 0.10 0.13 0.15 0.18 0.22 0.34 0.47 0.44 0.44 0.49 0.55 0.63 0.68 0.68 0.76 0.89 1.03 1.08 1.12 1.09 0.95 0.86 0.85 0.81
0.46 0.45 0.44 0.35 0.31 0.34 0.28 0.21 0.18 0.15 0.13 0.11 0.11 0.11 0.11 0.11 0.11 0.10 0.10 0.11 0.14 0.19 0.25 0.33 0.38 0.46 0.58 0.55 0.57 0.63 0.65 0.67 0.70 0.75 0.78 0.86 1.02 1.03 1.03 1.00 0.98 0.94 0.92 0.88
0.52 0.47 0.47 0.41 0.37 0.36 0.26 0.20 0.15 0.12 0.12 0.13 0.13 0.12 0.12 0.12 0.15 0.15 0.15 0.15 0.19 0.28 0.37 0.46 0.54 0.60 0.65 0.68 0.74 0.79 0.76 0.73 0.77 0.82 0.87 0.93 0.98 1.03 0.98 0.93 0.83 0.86 0.87 0.85
0.53 0.51 0.61 0.55 0.37 0.29 0.23 0.19 0.14 0.13 0.12 0.12 0.13 0.13 0.13 0.13 0.13 0.15 0.18 0.19 0.22 0.29 0.38 0.48 0.57 0.66 0.72 0.83 0.94 1.01 1.00 0.89 0.89 0.91 0.95 1.01 1.00 0.90 0.75 0.67 0.53 0.51 0.56 0.60
0.40 0.43 0.49 0.39 0.29 0.28 0.25 0.23 0.16 0.14 0.13 0.12 0.11 0.12 0.13 0.15 0.14 0.15 0.16 0.20 0.26 0.32 0.40 0.45 0.52 0.63 0.74 0.88 0.96 1.02 1.05 1.03 0.98 1.00 1.04 1.04 1.05 1.00 0.90 0.73 0.58 0.50 0.45 0.48
0.29 0.31 0.32 0.25 0.26 0.27 0.24 0.21 0.16 0.14 0.13 0.11 0.12 0.13 0.14 0.15 0.15 0.16 0.19 0.22 0.26 0.34 0.43 0.48 0.55 0.61 0.72 0.86 0.96 0.99 0.99 0.98 0.98 1.03 1.05 1.01 0.98 0.99 1.03 0.97 0.87 0.75 0.57 0.52
0.29 0.31 0.35 0.32 0.28 0.26 0.24 0.20 0.18 0.16 0.15 0.13 0.12 0.12 0.14 0.17 0.18 0.18 0.19 0.22 0.28 0.33 0.39 0.49 0.61 0.67 0.75 0.84 0.90 0.95 0.98 0.98 0.99 0.99 1.00 1.02 0.99 0.96 0.98 1.02 1.00 0.89 0.74 0.66
0.40 0.40 0.41 0.34 0.26 0.21 0.20 0.21 0.22 0.22 0.20 0.19 0.17 0.15 0.15 0.16 0.19 0.20 0.21 0.27 0.36 0.44 0.52 0.62 0.66 0.72 0.87 0.97 1.01 1.04 1.07 1.07 1.11 1.07 0.96 0.93 0.96 0.99 0.99 1.03 1.04 0.94 0.82 0.70
0.50 0.52 0.48 0.38 0.29 0.26 0.27 0.29 0.30 0.28 0.25 0.23 0.22 0.21 0.20 0.20 0.21 0.21 0.23 0.27 0.34 0.41 0.52 0.66 0.67 0.70 0.85 1.00 1.10 1.12 1.05 0.98 0.99 0.99 0.91 0.82 0.85 0.91 0.92 0.93 0.89 0.81 0.71 0.58
0.49 0.48 0.44 0.41 0.39 0.35 0.33 0.33 0.31 0.28 0.27 0.26 0.24 0.25 0.27 0.30 0.31 0.31 0.31 0.33 0.38 0.40 0.43 0.50 0.60 0.68 0.79 0.91 1.02 1.06 1.05 1.00 0.94 0.92 0.89 0.81 0.76 0.80 0.83 0.82 0.72 0.66 0.60 0.51
0.37 0.34 0.33 0.32 0.33 0.34 0.34 0.35 0.34 0.33 0.32 0.32 0.32 0.33 0.33 0.33 0.35 0.37 0.38 0.44 0.56 0.62 0.56 0.54 0.63 0.65 0.73 0.86 0.97 0.97 1.00 1.03 0.96 0.81 0.79 0.79 0.73 0.75 0.69 0.65 0.60 0.57 0.52 0.48
0.34 0.34 0.33 0.36 0.40 0.45 0.46 0.44 0.44 0.44 0.42 0.41 0.42 0.43 0.42 0.40 0.42 0.46 0.50 0.54 0.64 0.74 0.72 0.67 0.62 0.58 0.66 0.81 0.92 0.87 0.84 0.89 0.87 0.75 0.74 0.78 0.72 0.67 0.56 0.53 0.51 0.51 0.51 0.49
0.37 0.40 0.42 0.44 0.45 0.47 0.48 0.48 0.49 0.48 0.44 0.43 0.44 0.46 0.46 0.44 0.44 0.52 0.67 0.71 0.64 0.69 0.70 0.67 0.61 0.59 0.61 0.78 0.84 0.83 0.79 0.77 0.78 0.72 0.68 0.68 0.67 0.61 0.52 0.51 0.51 0.48 0.45 0.43
0.35 0.38 0.41 0.40 0.38 0.36 0.33 0.34 0.35 0.35 0.34 0.34 0.36 0.39 0.45 0.47 0.46 0.51 0.59 0.70 0.72 0.75 0.68 0.65 0.63 0.60 0.59 0.68 0.74 0.81 0.84 0.76 0.72 0.65 0.62 0.58 0.60 0.57 0.49 0.46 0.43 0.38 0.37 0.39
0.22 0.22 0.23 0.23 0.23 0.22 0.19 0.19 0.23 0.28 0.29 0.30 0.33 0.42 0.54 0.57 0.57 0.66 0.66 0.60 0.68 0.68 0.63 0.61 0.59 0.57 0.52 0.54 0.65 0.73 0.79 0.76 0.72 0.63 0.56 0.53 0.49 0.47 0.44 0.39 0.34 0.32 0.35 0.36
0.10 0.09 0.10 0.10 0.12 0.15 0.16 0.18 0.20 0.22 0.25 0.29 0.30 0.40 0.61 0.73 0.68 0.63 0.61 0.60 0.58 0.52 0.50 0.51 0.45 0.43 0.44 0.44 0.54 0.62 0.70 0.72 0.72 0.64 0.55 0.50 0.43 0.42 0.45 0.43 0.37 0.33 0.32 0.31
0.07 0.07 0.07 0.10 0.16 0.23 0.28 0.29 0.26 0.26 0.31 0.34 0.32 0.40 0.57 0.71 0.80 0.72 0.59 0.53 0.49 0.44 0.44 0.42 0.38 0.41 0.42 0.46 0.54 0.63 0.70 0.70 0.70 0.65 0.57 0.50 0.44 0.43 0.46 0.45 0.40 0.35 0.32 0.30
0.09 0.10 0.12 0.16 0.23 0.33 0.39 0.40 0.42 0.44 0.50 0.56 0.56 0.60 0.67 0.67 0.70 0.69 0.61 0.51 0.45 0.45 0.45 0.44 0.41 0.40 0.43 0.51 0.56 0.62 0.69 0.70 0.67 0.61 0.50 0.46 0.42 0.42 0.46 0.44 0.38 0.36 0.32 0.27
0.14 0.15 0.20 0.23 0.29 0.38 0.44 0.50 0.58 0.63 0.72 0.83 0.88 0.83 0.83 0.81 0.75 0.66 0.56 0.47 0.42 0.42 0.44 0.43 0.40 0.38 0.42 0.50 0.57 0.63 0.63 0.63 0.58 0.53 0.51 0.49 0.46 0.46 0.48 0.44 0.40 0.36 0.30 0.27

GEFSNGP_prec_meanprecacc_132.txt.gz
Total_Precipitation_Accumulation
0.13 0.19 0.26 0.29 0.24 0.19 0.16 0.20 0.32 0.27 0.26 0.30 0.33 0.29 0.32 0.38 0.32 0.25 0.21 0.18 0.18 0.20 0.23 0.27 0.26 0.24 0.21 0.18 0.18 0.24 0.29 0.36 0.45 0.40 0.34 0.32 0.29 0.23 0.21 0.25 0.30 0.43 0.52 0.57
0.11 0.14 0.18 0.21 0.22 0.16 0.11 0.10 0.13 0.20 0.29 0.29 0.30 0.31 0.31 0.30 0.28 0.22 0.19 0.16 0.15 0.16 0.18 0.19 0.17 0.13 0.09 0.09 0.12 0.19 0.26 0.30 0.37 0.36 0.29 0.24 0.20 0.16 0.16 0.22 0.29 0.37 0.40 0.46
0.17 0.14 0.20 0.22 0.19 0.14 0.09 0.07 0.09 0.22 0.36 0.29 0.27 0.30 0.28 0.27 0.25 0.18 0.13 0.11 0.10 0.08 0.07 0.06 0.06 0.05 0.06 0.07 0.09 0.17 0.26 0.33 0.39 0.43 0.42 0.32 0.20 0.17 0.20 0.27 0.35 0.41 0.40 0.40
0.22 0.27 0.39 0.24 0.14 0.13 0.14 0.10 0.11 0.15 0.21 0.21 0.21 0.20 0.17 0.15 0.14 0.12 0.12 0.09 0.07 0.06 0.05 0.05 0.04 0.06 0.09 0.09 0.10 0.17 0.26 0.32 0.34 0.39 0.41 0.38 0.35 0.33 0.37 0.44 0.50 0.53 0.47 0.45
0.28 0.33 0.29 0.21 0.18 0.18 0.20 0.19 0.21 0.24 0.18 0.18 0.17 0.15 0.17 0.13 0.14 0.12 0.12 0.11 0.10 0.09 0.09 0.09 0.09 0.12 0.16 0.16 0.20 0.24 0.33 0.42 0.42 0.45 0.46 0.43 0.43 0.47 0.51 0.57 0.56 0.57 0.52 0.50
0.38 0.42 0.39 0.31 0.30 0.27 0.27 0.39 0.33 0.34 0.32 0.29 0.26 0.28 0.25 0.14 0.12 0.15 0.14 0.16 0.15 0.13 0.13 0.14 0.15 0.19 0.24 0.29 0.34 0.41 0.50 0.57 0.57 0.61 0.65 0.62 0.63 0.64 0.62 0.65 0.60 0.56 0.54 0.57
0.49 0.51 0.45 0.38 0.39 0.32 0.49 0.59 0.35 0.32 0.35 0.36 0.34 0.30 0.20 0.14 0.11 0.14 0.12 0.12 0.14 0.16 0.16 0.18 0.21 0.27 0.38 0.43 0.46 0.49 0.52 0.60 0.67 0.75 0.86 0.90 0.93 0.87 0.82 0.79 0.76 0.70 0.64 0.66
0.70 0.73 0.61 0.41 0.41 0.56 0.65 0.52 0.49 0.39 0.34 0.34 0.30 0.26 0.20 0.15 0.13 0.11 0.12 0.13 0.15 0.18 0.18 0.21 0.25 0.34 0.44 0.48 0.52 0.59 0.65 0.75 0.82 0.90 0.92 0.98 1.22 1.22 1.21 1.13 0.99 0.90 0.85 0.77
0.70 0.74 0.57 0.45 0.51 0.55 0.57 0.60 0.58 0.48 0.33 0.33 0.29 0.24 0.21 0.19 0.15 0.12 0.12 0.13 0.16 0.20 0.23 0.28 0.34 0.49 0.63 0.60 0.61 0.69 0.76 0.85 0.88 0.92 0.97 1.07 1.21 1.26 1.31 1.29 1.16 1.04 1.00 0.94
0.67 0.70 0.62 0.48 0.42 0.48 0.49 0.45 0.49 0.46 0.42 0.43 0.36 0.28 0.23 0.20 0.17 0.16 0.15 0.16 0.20 0.27 0.34 0.44 0.51 0.63 0.75 0.72 0.75 0.81 0.83 0.86 0.89 0.95 0.99 1.06 1.22 1.23 1.22 1.18 1.15 1.11 1.08 1.02
0.68 0.62 0.59 0.54 0.54 0.58 0.58 0.48 0.45 0.39 0.33 0.35 0.32 0.26 0.22 0.21 0.20 0.20 0.20 0.22 0.26 0.33 0.44 0.56 0.66 0.73 0.78 0.82 0.89 0.97 0.95 0.93 0.97 1.01 1.03 1.08 1.14 1.20 1.14 1.06 0.94 0.95 0.96 0.94
0.66 0.62 0.72 0.69 0.57 0.56 0.57 0.50 0.48 0.42 0.38 0.31 0.28 0.24 0.22 0.20 0.19 0.20 0.22 0.24 0.27 0.34 0.45 0.57 0.67 0.78 0.84 0.95 1.07 1.14 1.14 1.05 1.04 1.05 1.08 1.13 1.12 1.01 0.85 0.75 0.60 0.56 0.60 0.64
0.51 0.53 0.60 0.53 0.46 0.50 0.53 0.49 0.37 0.33 0.31 0.28 0.24 0.20 0.20 0.20 0.19 0.19 0.20 0.23 0.30 0.38 0.46 0.53 0.62 0.75 0.88 1.04 1.12 1.16 1.18 1.16 1.11 1.13 1.15 1.13 1.13 1.07 0.97 0.79 0.63 0.54 0.48 0.51
0.36 0.39 0.44 0.39 0.43 0.45 0.42 0.38 0.27 0.25 0.22 0.20 0.21 0.21 0.20 0.19 0.19 0.19 0.21 0.24 0.29 0.38 0.48 0.55 0.64 0.72 0.84 0.98 1.08 1.12 1.10 1.10 1.10 1.15 1.18 1.13 1.11 1.11 1.14 1.06 0.95 0.81 0.62 0.56
0.35 0.37 0.45 0.44 0.41 0.38 0.34 0.29 0.26 0.24 0.22 0.20 0.19 0.18 0.18 0.19 0.20 0.20 0.21 0.24 0.30 0.36 0.44 0.55 0.67 0.74 0.82 0.90 0.96 1.02 1.06 1.09 1.10 1.10 1.12 1.16 1.17 1.16 1.19 1.20 1.13 0.99 0.81 0.71
0.48 0.48 0.51 0.46 0.38 0.29 0.27 0.28 0.29 0.28 0.24 0.23 0.23 0.21 0.20 0.20 0.22 0.23 0.25 0.30 0.39 0.47 0.55 0.65 0.70 0.76 0.91 1.00 1.04 1.08 1.12 1.13 1.17 1.13 1.03 1.00 1.02 1.05 1.04 1.08 1.08 0.98 0.86 0.74
0.57 0.60 0.57 0.51 0.39 0.33 0.34 0.40 0.41 0.36 0.30 0.27 0.26 0.25 0.24 0.24 0.25 0.26 0.28 0.31 0.38 0.44 0.55 0.69 0.70 0.74 0.89 1.05 1.15 1.15 1.07 1.01 1.02 1.02 0.95 0.87 0.90 0.96 0.98 0.99 0.94 0.86 0.76 0.62
0.54 0.53 0.50 0.50 0.47 0.41 0.38 0.40 0.40 0.36 0.33 0.30 0.27 0.27 0.30 0.32 0.34 0.34 0.34 0.36 0.40 0.41 0.44 0.52 0.61 0.70 0.81 0.95 1.06 1.09 1.07 1.01 0.95 0.94 0.91 0.85 0.80 0.83 0.87 0.85 0.76 0.69 0.63 0.53
0.44 0.39 0.38 0.41 0.41 0.40 0.38 0.39 0.38 0.38 0.38 0.37 0.36 0.36 0.35 0.35 0.36 0.39 0.40 0.45 0.56 0.63 0.57 0.55 0.64 0.66 0.75 0.88 1.00 1.00 1.02 1.05 0.97 0.83 0.81 0.81 0.75 0.76 0.70 0.66 0.61 0.58 0.53 0.49
0.40 0.39 0.38 0.43 0.47 0.50 0.51 0.50 0.48 0.48 0.45 0.44 0.44 0.45 0.44 0.42 0.44 0.47 0.50 0.55 0.65 0.75 0.72 0.68 0.62 0.59 0.67 0.83 0.94 0.88 0.85 0.90 0.87 0.76 0.75 0.79 0.73 0.68 0.56 0.54 0.52 0.52 0.51 0.49
0.44 0.46 0.46 0.48 0.49 0.51 0.52 0.52 0.52 0.50 0.47 0.45 0.46 0.47 0.47 0.45 0.45 0.54 0.68 0.72 0.65 0.69 0.70 0.68 0.61 0.59 0.61 0.78 0.85 0.84 0.79 0.78 0.78 0.72 0.68 0.69 0.67 0.62 0.52 0.52 0.51 0.48 0.45 0.44
0.41 0.43 0.44 0.43 0.40 0.38 0.35 0.35 0.35 0.36 0.34 0.34 0.37 0.40 0.46 0.47 0.46 0.52 0.60 0.70 0.73 0.76 0.69 0.66 0.63 0.60 0.59 0.68 0.74 0.81 0.84 0.76 0.72 0.65 0.62 0.59 0.60 0.58 0.50 0.47 0.44 0.38 0.37 0.40
0.24 0.23 0.25 0.25 0.25 0.24 0.20 0.20 0.24 0.28 0.30 0.31 0.34 0.43 0.55 0.58 0.57 0.67 0.66 0.60 0.68 0.68 0.64 0.61 0.59 0.57 0.52 0.54 0.65 0.73 0.79 0.76 0.72 0.63 0.57 0.53 0.50 0.48 0.44 0.40 0.35 0.33 0.35 0.36
0.10 0.10 0.11 0.11 0.13 0.16 0.17 0.18 0.20 0.23 0.26 0.29 0.30 0.41 0.62 0.74 0.70 0.65 0.64 0.62 0.58 0.53 0.50 0.51 0.45 0.43 0.44 0.44 0.54 0.62 0.70 0.72 0.72 0.64 0.56 0.51 0.44 0.42 0.45 0.44 0.37 0.33 0.33 0.31
0.08 0.08 0.08 0.11 0.16 0.23 0.28 0.29 0.26 0.26 0.32 0.34 0.33 0.41 0.59 0.74 0.83 0.75 0.62 0.55 0.50 0.45 0.44 0.42 0.38 0.41 0.43 0.46 0.54 0.63 0.70 0.70 0.71 0.66 0.57 0.51 0.45 0.43 0.46 0.46 0.40 0.35 0.33 0.31
0.10 0.11 0.14 0.18 0.24 0.34 0.39 0.41 0.43 0.44 0.51 0.57 0.57 0.61 0.68 0.69 0.72 0.71 0.62 0.52 0.45 0.46 0.46 0.44 0.41 0.40 0.44 0.51 0.56 0.62 0.70 0.70 0.67 0.61 0.51 0.46 0.42 0.42 0.46 0.44 0.39 0.37 0.32 0.28
0.15 0.17 0.21 0.25 0.30 0.39 0.45 0.51 0.59 0.64 0.73 0.84 0.89 0.84 0.84 0.82 0.77 0.67 0.57 0.48 0.43 0.43 0.44 0.44 0.40 0.39 0.43 0.51 0.57 0.63 0.64 0.63 0.58 0.53 0.52 0.49 0.46 0.47 0.49 0.45 0.41 0.37 0.31 0.28